When you browse on this site, cookies collect data to enhance your experience and personalize the content and advertising you see.
Visit our Privacy Policy to learn more. By continuing to use the site, you agree to this use of cookies and data.
  • In Czech Republic
  • List of Countries
  • For 7 days
  • Water Temperature
  • Satellite Maps
  • Weather Map
  • Weather Widgets
  • user-avatar
    Login

    Hourly Weather Murfatlar

    Today, 19 February, Tuesday

    Time Temperature Precipitation Wind Pressure Humidity
    00:00 +6°C° 0 mm 2 mps 763 mmHg 79%
    01:00 +6°C° 0 mm 2 mps 763 mmHg 81%
    02:00 +6°C° 0 mm 2 mps 763 mmHg 83%
    03:00 +6°C° 0 mm 2 mps 763 mmHg 85%
    04:00 +5°C° 0 mm 2 mps 763 mmHg 87%
    05:00 +5°C° 0 mm 2 mps 762 mmHg 88%
    06:00 +5°C° 0 mm 2 mps 763 mmHg 89%
    07:00 +5°C° 0 mm 2 mps 763 mmHg 89%
    08:00 +4°C° 0 mm 3 mps 763 mmHg 89%
    09:00 +7°C° 0 mm 3 mps 763 mmHg 82%
    10:00 +8°C° 0 mm 4 mps 763 mmHg 74%
    11:00 +10°C° 0 mm 4 mps 763 mmHg 66%
    12:00 +11°C° 0 mm 4 mps 762 mmHg 64%
    13:00 +10°C° 0 mm 5 mps 762 mmHg 61%
    14:00 +12°C° 0 mm 5 mps 762 mmHg 59%
    15:00 +10°C° 0 mm 5 mps 761 mmHg 62%
    16:00 +10°C° 0 mm 5 mps 761 mmHg 65%
    17:00 +9°C° 0 mm 5 mps 761 mmHg 68%
    18:00 +8°C° 0 mm 5 mps 761 mmHg 71%
    19:00 +7°C° 0 mm 5 mps 761 mmHg 75%
    20:00 +6°C° 0 mm 5 mps 761 mmHg 79%
    21:00 +6°C° 0 mm 5 mps 760 mmHg 81%
    22:00 +6°C° 0 mm 5 mps 760 mmHg 82%
    23:00 +5°C° 0 mm 5 mps 760 mmHg 84%

    Tomorrow, 20 February, Wednesday

    Time Temperature Precipitation Wind Pressure Humidity
    00:00 +5°C° 0 mm 5 mps 760 mmHg 85%
    01:00 +5°C° 0 mm 4 mps 760 mmHg 87%
    02:00 +5°C° 0 mm 4 mps 759 mmHg 89%
    03:00 +5°C° 0 mm 4 mps 759 mmHg 90%
    04:00 +5°C° 0 mm 4 mps 759 mmHg 91%
    05:00 +4°C° 0 mm 4 mps 758 mmHg 92%
    06:00 +5°C° 0 mm 3 mps 758 mmHg 89%
    07:00 +5°C° 0 mm 3 mps 758 mmHg 87%
    08:00 +5°C° 0 mm 3 mps 758 mmHg 84%
    09:00 +7°C° 0 mm 4 mps 758 mmHg 73%
    10:00 +10°C° 0 mm 4 mps 758 mmHg 62%
    11:00 +12°C° 0 mm 4 mps 758 mmHg 51%
    12:00 +13°C° 0 mm 5 mps 758 mmHg 48%
    13:00 +14°C° 0 mm 5 mps 757 mmHg 45%
    14:00 +15°C° 0 mm 5 mps 757 mmHg 43%
    15:00 +14°C° 0 mm 5 mps 757 mmHg 45%
    16:00 +14°C° 0 mm 4 mps 757 mmHg 47%
    17:00 +13°C° 0 mm 4 mps 757 mmHg 50%
    18:00 +12°C° 0 mm 3 mps 757 mmHg 54%
    19:00 +11°C° 0 mm 3 mps 758 mmHg 58%
    20:00 +10°C° 0 mm 3 mps 758 mmHg 63%
    21:00 +9°C° 0 mm 3 mps 758 mmHg 63%
    22:00 +9°C° 0 mm 3 mps 759 mmHg 63%
    23:00 +8°C° 0 mm 3 mps 759 mmHg 62%

    Day after tomorrow, 21 February, Thursday

    Time Temperature Precipitation Wind Pressure Humidity
    00:00 +8°C° 0 mm 3 mps 760 mmHg 64%
    01:00 +7°C° 0 mm 4 mps 760 mmHg 65%
    02:00 +6°C° 0 mm 4 mps 760 mmHg 67%
    03:00 +6°C° 0 mm 4 mps 761 mmHg 68%
    04:00 +7°C° 0 mm 3 mps 761 mmHg 70%
    05:00 +7°C° 0 mm 3 mps 761 mmHg 71%
    06:00 +7°C° 0 mm 3 mps 761 mmHg 70%
    07:00 +6°C° 0 mm 2 mps 762 mmHg 69%
    08:00 +6°C° 0 mm 2 mps 762 mmHg 69%
    09:00 +7°C° 0 mm 2 mps 763 mmHg 61%
    10:00 +9°C° 0 mm 2 mps 763 mmHg 54%
    11:00 +11°C° 0 mm 1 mps 763 mmHg 46%
    12:00 +12°C° 0 mm 2 mps 763 mmHg 45%
    13:00 +11°C° 0 mm 3 mps 763 mmHg 43%
    14:00 +12°C° 0 mm 4 mps 762 mmHg 42%
    15:00 +12°C° 0 mm 3 mps 762 mmHg 43%
    16:00 +12°C° 0 mm 3 mps 762 mmHg 45%
    17:00 +11°C° 0 mm 3 mps 762 mmHg 46%
    18:00 +12°C° 0 mm 2 mps 762 mmHg 50%
    19:00 +10°C° 0 mm 2 mps 762 mmHg 54%
    20:00 +9°C° 0 mm 2 mps 762 mmHg 59%
    21:00 +8°C° 0 mm 2 mps 762 mmHg 60%
    22:00 +8°C° 0 mm 2 mps 761 mmHg 62%
    23:00 +8°C° 0 mm 2 mps 761 mmHg 64%

    22 February, Friday

    Time Temperature Precipitation Wind Pressure Humidity
    00:00 +7°C° 0 mm 2 mps 761 mmHg 64%
    01:00 +7°C° 0 mm 2 mps 761 mmHg 65%
    02:00 +7°C° 0 mm 2 mps 760 mmHg 65%
    03:00 +6°C° 0 mm 2 mps 760 mmHg 67%
    04:00 +5°C° 0 mm 3 mps 759 mmHg 68%
    05:00 +5°C° 0 mm 3 mps 759 mmHg 70%
    06:00 +5°C° 0 mm 3 mps 758 mmHg 71%
    07:00 +5°C° 0 mm 3 mps 758 mmHg 73%
    08:00 +5°C° 0 mm 3 mps 758 mmHg 74%
    09:00 +7°C° 0.1 mm 3 mps 757 mmHg 73%
    10:00 +7°C° 0.1 mm 3 mps 757 mmHg 73%
    11:00 +8°C° 0.1 mm 3 mps 757 mmHg 72%
    12:00 +8°C° 0.3 mm 3 mps 756 mmHg 73%
    13:00 +8°C° 0.3 mm 3 mps 756 mmHg 73%
    14:00 +8°C° 0.3 mm 3 mps 755 mmHg 73%
    15:00 +7°C° 0.4 mm 4 mps 755 mmHg 74%
    16:00 +6°C° 0.4 mm 4 mps 755 mmHg 76%
    17:00 +6°C° 0.4 mm 5 mps 755 mmHg 77%
    18:00 +3°C° 0.7 mm 7 mps 756 mmHg 77%
    19:00 +1°C° 0.7 mm 10 mps 757 mmHg 77%
    20:00 -2°C° 0.7 mm 13 mps 758 mmHg 77%
    21:00 -4°C° 0.2 mm 13 mps 759 mmHg 75%
    22:00 -5°C° 0.2 mm 12 mps 760 mmHg 73%
    23:00 -6°C° 0.2 mm 12 mps 761 mmHg 72%

    23 February, Saturday

    Time Temperature Precipitation Wind Pressure Humidity
    00:00 -7°C° 0 mm 12 mps 762 mmHg 68%
    01:00 -8°C° 0 mm 12 mps 762 mmHg 64%
    02:00 -9°C° 0 mm 11 mps 763 mmHg 60%
    03:00 -9°C° 0 mm 11 mps 764 mmHg 58%
    04:00 -9°C° 0 mm 11 mps 764 mmHg 57%
    05:00 -11°C° 0 mm 11 mps 765 mmHg 55%
    06:00 -11°C° 0 mm 11 mps 766 mmHg 54%
    07:00 -10°C° 0 mm 10 mps 766 mmHg 52%
    08:00 -10°C° 0 mm 10 mps 767 mmHg 51%
    09:00 -9°C° 0 mm 10 mps 767 mmHg 48%
    10:00 -8°C° 0 mm 10 mps 767 mmHg 45%
    11:00 -7°C° 0 mm 10 mps 768 mmHg 42%
    12:00 -6°C° 0 mm 9 mps 768 mmHg 41%
    13:00 -5°C° 0 mm 9 mps 767 mmHg 40%
    14:00 -5°C° 0 mm 8 mps 767 mmHg 39%
    15:00 -5°C° 0 mm 8 mps 767 mmHg 40%
    16:00 -5°C° 0 mm 8 mps 767 mmHg 41%
    17:00 -4°C° 0 mm 7 mps 767 mmHg 42%
    18:00 -6°C° 0 mm 7 mps 767 mmHg 45%
    19:00 -5°C° 0 mm 6 mps 768 mmHg 47%
    20:00 -6°C° 0 mm 6 mps 768 mmHg 50%
    21:00 -6°C° 0 mm 6 mps 768 mmHg 50%
    22:00 -6°C° 0 mm 6 mps 767 mmHg 51%
    23:00 -6°C° 0 mm 6 mps 767 mmHg 51%

    24 February, Sunday

    Time Temperature Precipitation Wind Pressure Humidity
    00:00 -6°C° 0 mm 5 mps 767 mmHg 52%
    01:00 -6°C° 0 mm 5 mps 767 mmHg 53%
    02:00 -7°C° 0 mm 5 mps 767 mmHg 54%
    03:00 -8°C° 0 mm 6 mps 767 mmHg 54%
    04:00 -8°C° 0 mm 6 mps 766 mmHg 53%
    05:00 -8°C° 0 mm 6 mps 766 mmHg 53%
    06:00 -8°C° 0 mm 7 mps 767 mmHg 52%
    07:00 -8°C° 0 mm 7 mps 767 mmHg 51%
    08:00 -8°C° 0 mm 8 mps 767 mmHg 50%
    09:00 -7°C° 0 mm 8 mps 767 mmHg 47%
    10:00 -7°C° 0 mm 8 mps 767 mmHg 45%
    11:00 -6°C° 0 mm 8 mps 767 mmHg 42%
    12:00 -5°C° 0 mm 8 mps 767 mmHg 42%
    13:00 -5°C° 0 mm 8 mps 767 mmHg 42%
    14:00 -4°C° 0 mm 8 mps 767 mmHg 42%
    15:00 -4°C° 0 mm 7 mps 766 mmHg 44%
    16:00 -4°C° 0 mm 7 mps 766 mmHg 47%
    17:00 -4°C° 0 mm 7 mps 766 mmHg 49%
    18:00 -5°C° 0 mm 6 mps 766 mmHg 53%
    19:00 -6°C° 0 mm 6 mps 767 mmHg 56%
    20:00 -6°C° 0 mm 5 mps 767 mmHg 60%
    21:00 -6°C° 0 mm 6 mps 767 mmHg 61%
    22:00 -8°C° 0 mm 6 mps 766 mmHg 62%
    23:00 -8°C° 0 mm 6 mps 766 mmHg 63%
    Show more